Torna al catalogo

COSMOS 1275 DEB

AttivoPO
NORAD 17641·DEBRIS·🇷🇺 Russia

Lanciato Jun 4, 1981 da Plesetsk Cosmodrome

Loading…

Prossimi Passaggi (prossime 24 ore)

TLE

AggiornatoSource: Space-Track

Epoca: Sep 14, 2026, 14:11 UTC

1 17641U 81053LL  26257.59115950  .00002231  00000-0  95892-3 0  9997
2 17641  82.7502 194.3292 0050201 117.2335   2.7292 14.23642446124606

Traccia COSMOS 1275 DEB in tempo reale con AllMySat

Download on the App Store